Kaunas, Lithuania

1:47 AM EET on January 22, 2017 (GMT +0200)
Kaunas

Weather History for EYKA - August, 2012

Change the Weather History Date:

Monday, August 20, 2012

  Actual Average (EYVI) Record (EYVI)
Temperature  
Mean Temperature 69 °F -  
Max Temperature 76 °F 65 °F 85 °F (2013)
Min Temperature 62 °F 49 °F 44 °F (2015)
Cooling Degree Days 4    
Growing Degree Days 19 (Base 50)    
Moisture  
Dew Point 61 °F    
Average Humidity 74    
Maximum Humidity 94    
Minimum Humidity 48    
Precipitation  
Precipitation 0.00 in 0.08 in - ()
Sea Level Pressure  
Sea Level Pressure 29.96 in    
Wind  
Wind Speed 6 mph ()    
Max Wind Speed 10 mph    
Max Gust Speed -    
Visibility 7.6 miles    
Events      
Averages and records for this station are not official NWS values.
T = Trace of Precipitation, MM = Missing Value Source: Averaged Metar Reports

Daily Weather History Graph

Daily Weather History Graph

Search for Another Location

Airport or City:

Trip Planner

Search our weather history database for the weather conditions in past years. The results will help you decide how hot, cold, wet, or windy it might be!

Date:

Astronomy

Aug. 20, 2012 Rise Set
Actual Time 6:09 AM EEST 8:45 PM EEST
Civil Twilight 5:28 AM EEST 9:25 PM EEST
Nautical Twilight 4:36 AM EEST 10:17 PM EEST
Astronomical Twilight 3:30 AM EEST 11:22 PM EEST
Moon 9:53 AM EEST (8/20) 9:09 PM EEST (8/20)
Length of Visible Light 15h 56m
Length of Day
14h 36m
Waxing Crescent, 9% of the Moon is Illuminated
Aug 20
Waxing Crescent
Aug 24
First Quarter
Aug 31
Full
Sep 8
Last Quarter
Sep 16
New

Hourly Weather History & Observations

Time (EEST) Temp. Dew Point Humidity Pressure Visibility Wind Dir Wind Speed Gust Speed Precip Events Conditions
12:00 AM 69 °F 62 °F 71% 29.94 in 12 mi SW 6.7 mph - -   Mostly Cloudy
3:00 AM 68 °F 61 °F 71% 29.94 in 12 mi West 6.7 mph - -   Mostly Cloudy
3:50 AM 64.4 °F 60.8 °F 88% 29.92 in - West 6.9 mph - N/A   Clear
4:20 AM 64.4 °F 60.8 °F 88% 29.92 in - West 8.1 mph - N/A   Clear
4:50 AM 62.6 °F 60.8 °F 94% 29.92 in - West 6.9 mph - N/A   Clear
5:20 AM 62.6 °F 60.8 °F 94% 29.92 in - WNW 5.8 mph - N/A   Clear
5:50 AM 62.6 °F 60.8 °F 94% 29.92 in - West 6.9 mph - N/A   Clear
6:00 AM 63 °F 61 °F 89% 29.94 in 7 mi West 4.5 mph - -   Mostly Cloudy
6:20 AM 62.6 °F 60.8 °F 94% 29.92 in - West 8.1 mph - N/A   Clear
6:50 AM 62.6 °F 60.8 °F 94% 29.92 in - West 4.6 mph - N/A   Clear
7:50 AM 66.2 °F 60.8 °F 83% 29.95 in - West 6.9 mph - N/A   Clear
8:20 AM 66.2 °F 62.6 °F 88% 29.95 in - West 6.9 mph - N/A   Clear
8:50 AM 66.2 °F 62.6 °F 88% 29.95 in - West 5.8 mph - N/A   Clear
9:00 AM 67 °F 62 °F 80% 29.95 in 8 mi WNW 4.5 mph - -   Scattered Clouds
9:20 AM 68.0 °F 62.6 °F 83% 29.95 in - West 5.8 mph - N/A   Clear
9:50 AM 69.8 °F 62.6 °F 78% 29.95 in 6.2 mi West 6.9 mph - N/A   Mostly Cloudy
10:20 AM 69.8 °F 62.6 °F 78% 29.95 in 6.2 mi West 5.8 mph - N/A   Mostly Cloudy
10:50 AM 71.6 °F 62.6 °F 73% 29.95 in 6.2 mi WNW 8.1 mph - N/A   Mostly Cloudy
11:20 AM 71.6 °F 62.6 °F 73% 29.95 in 6.2 mi West 10.4 mph - N/A   Mostly Cloudy
11:50 AM 73.4 °F 62.6 °F 69% 29.95 in 6.2 mi West 9.2 mph - N/A   Mostly Cloudy
12:00 PM 75 °F 62 °F 56% 29.96 in 12 mi NW 6.7 mph - -   Scattered Clouds
12:20 PM 73.4 °F 60.8 °F 65% 29.95 in 6.2 mi WNW 8.1 mph - N/A   Mostly Cloudy
12:50 PM 73.4 °F 62.6 °F 69% 29.95 in 6.2 mi NW 6.9 mph - N/A   Overcast
1:20 PM 75.2 °F 62.6 °F 65% 29.95 in 6.2 mi WNW 8.1 mph - N/A   Mostly Cloudy
1:50 PM 73.4 °F 60.8 °F 65% 29.95 in 6.2 mi NW 8.1 mph - N/A   Mostly Cloudy
2:20 PM 73.4 °F 62.6 °F 69% 29.95 in 6.2 mi NNW 9.2 mph - N/A   Mostly Cloudy
2:50 PM 71.6 °F 60.8 °F 69% 29.98 in 6.2 mi NW 6.9 mph - N/A   Mostly Cloudy
3:00 PM 73 °F 64 °F 65% 29.97 in 12 mi NNW 8.9 mph - -   Overcast
3:20 PM 73.4 °F 60.8 °F 65% 29.95 in 6.2 mi Variable 6.9 mph - N/A   Mostly Cloudy
3:50 PM 73.4 °F 60.8 °F 65% 29.95 in 6.2 mi WNW 5.8 mph - N/A   Mostly Cloudy
4:20 PM 73.4 °F 60.8 °F 65% 29.95 in 6.2 mi NW 5.8 mph - N/A   Mostly Cloudy
4:50 PM 73.4 °F 60.8 °F 65% 29.95 in 6.2 mi NW 8.1 mph - N/A   Mostly Cloudy
5:20 PM 73.4 °F 60.8 °F 65% 29.95 in 6.2 mi NW 4.6 mph - N/A   Mostly Cloudy
5:50 PM 75.2 °F 59.0 °F 57% 29.95 in 6.2 mi NW 4.6 mph - N/A   Mostly Cloudy
6:00 PM 75 °F 59 °F 48% 29.99 in 12 mi NNW 8.9 mph - -   Scattered Clouds
6:20 PM 73.4 °F 59.0 °F 61% 29.98 in - Variable 4.6 mph - N/A   Clear
6:50 PM 71.6 °F 59.0 °F 64% 29.98 in - Variable 3.5 mph - N/A   Clear
7:20 PM 69.8 °F 59.0 °F 68% 29.98 in - Variable 2.3 mph - N/A   Clear
7:50 PM 69.8 °F 59.0 °F 68% 30.01 in - Variable 2.3 mph - N/A   Clear
8:20 PM 68.0 °F 57.2 °F 68% 30.01 in 6.2 mi NNW 3.5 mph - N/A   Overcast
8:50 PM 66.2 °F 57.2 °F 73% 30.01 in 6.2 mi North 4.6 mph - N/A   Mostly Cloudy
9:00 PM 68 °F 59 °F 65% 30.00 in 12 mi North 4.5 mph - -   Overcast
9:20 PM 66.2 °F 57.2 °F 73% 30.01 in - NNE 4.6 mph - N/A   Clear
9:50 PM 66.2 °F 57.2 °F 73% 30.01 in - North 5.8 mph - N/A   Clear
10:20 PM 64.4 °F 57.2 °F 77% 30.01 in - North 6.9 mph - N/A   Clear
10:50 PM 64.4 °F 57.2 °F 77% 29.98 in - NNE 5.8 mph - N/A   Clear
11:20 PM 62.6 °F 57.2 °F 82% 30.01 in - NNE 6.9 mph - N/A   Clear
11:50 PM 62.6 °F 57.2 °F 82% 30.04 in - ENE 6.9 mph - N/A   Clear